Terminal Aerodrome Forecast
Issued by NWS Paducah, KY

Home | Current Version | Previous Version | Text Only | Print | Product List | Glossary On
Versions: 1 2 3 4 5 6 7 8 9 10 11 12 13 14 15 16 17 18
000
FTUS43 KPAH 190527
TAFPAH
TAF
KPAH 190527Z 1906/2006 VRB03KT P6SM VCSH BKN050
      TEMPO 1906/1909 5SM -SHRA BR
     FM190900 VRB04KT 4SM -SHRA BR OVC030
     FM191200 13005KT 3SM -TSRA BR OVC012CB
     FM191900 23006KT P6SM OVC050
     FM200100 23006KT P6SM VCTS BKN035CB=

USA.gov is the U.S. government's official web portal to all federal, state and local government web resources and services.